Regional Weather Roundup
Issued by NWS

Home | Current Version | Previous Version | Graphics & Text | Print | Product List | Glossary On
Versions: 1 2 3 4 5 6 7 8 9 10 11 12 13 14 15 16 17 18 19 20 21 22 23 24 25 26 27 28 29 30 31 32 33 34 35 36 37 38 39 40 41 42 43 44 45 46 47 48 49 50
000
ASUS45 KSLC 220810
RWRUT

UTAH REGIONAL WEATHER ROUNDUP
NATIONAL WEATHER SERVICE SALT LAKE CITY UT
100 AM MST SUN JAN 22 2017

UTZ001>011-023>025-220900-

NORTHERN UTAH

CITY           SKY/WX    TMP DP  RH WIND       PRES   REMARKS
BRIGHAM CITY     N/A     32  25  76 W3        29.96R
HILL AFB       PTCLDY    28  23  80 S12       29.94R WCI  18
LOGAN          CLOUDY    26  26 100 NE3       29.93R
OGDEN          MOCLDY    30  25  81 SE7       29.94R WCI  23
SALT LAKE CITY PTCLDY    29  25  85 SE9       29.96R WCI  20
TOOELE VALLEY  CLEAR     27  21  80 S14G21    29.96R WCI  15
WENDOVER       PTCLDY    23  19  86 E9        29.93S WCI  13
HEBER CITY     MOCLDY    19  18  93 CALM      29.94R
WEST JORDAN    MOCLDY    28  28  97 SW7       29.97R WCI  21

$$

UTZ011>015-024>027-220900-

CENTRAL/NORTHEAST UTAH

CITY           SKY/WX    TMP DP  RH WIND       PRES   REMARKS
PROVO AIRPORT  MOCLDY    20  19  96 CALM      30.00S
MOAB/CANYONLAN CLEAR     32  24  72 SW3       29.96R
DELTA          PTCLDY    25  19  80 S12       29.99R WCI  14
PRICE          PTCLDY    11   8  88 E6        29.92R WCI   1
RICHFIELD      CLEAR     18  18 100 CALM      30.03R
ROOSEVELT      FOG       19  18  93 W3        29.96R VSB 1/2
VERNAL         CLOUDY    27  23  85 N5        29.93R FOG     WCI  22

$$

UTZ013>016-019>022-027-220900-

SOUTHERN UTAH

CITY           SKY/WX    TMP DP  RH WIND       PRES   REMARKS
BRYCE CANYON   PTCLDY    -1  -5  82 W6        29.98F WCI -13
CEDAR CITY     PTCLDY    23  14  68 S6        30.00R WCI  16
MILFORD        PTCLDY    28  22  78 SW14      29.99R WCI  17
ST GEORGE      MOSUNNY   39  28  65 CALM      30.07R
HANKSVILLE     CLEAR     30  23  74 MISG      30.00R
KANAB          CLEAR     25  23  93 NE2       30.09R
BLANDING       CLEAR     21  15  78 N3        30.03R

$$

REGIONAL REPORTS     COLORADO/ARIZONA

CITY           SKY/WX    TMP DP  RH WIND       PRES   REMARKS
CRAIG, CO      LGT SNOW  27  21  78 SW17      29.90R WCI  14
GRAND JUNCTION CLEAR     31  27  85 W5        29.94R WCI  26
RIFLE, CO      CLOUDY    33  27  78 W6        29.91R WCI  28
MONTROSE, CO   CLOUDY    30  26  85 CALM      29.96R
CORTEZ, CO     MOCLDY    20  19  96 NE8       29.97R WCI  10
COLORADO CITY    N/A     25  23  93 S3        30.06F
PAGE, AZ       CLEAR     34  24  67 CALM      30.02R
GRAND CANYON   PTCLDY     4   2  91 CALM      30.04S
KINGMAN, AZ    CLOUDY    38  20  48 SE10      30.06R WCI  31
FLAGSTAFF, AZ  CLOUDY    19  18  95 CALM      30.04F

$$

REGIONAL REPORTS    NEVADA/IDAHO/WYOMING

CITY           SKY/WX    TMP DP  RH WIND       PRES   REMARKS
LAS VEGAS, NV  CLOUDY    48  31  51 S6        30.00F
ELY, NY        CLOUDY    21  15  78 S15       29.94R WCI   8
ELKO, NV       MOCLDY    20  15  81 NE6       29.87R WCI  12
POCATELLO, ID  CLOUDY    34  24  67 S13       29.89R WCI  25
BURLEY, ID     CLOUDY    34  24  67 S10       29.87R WCI  26
FORT BRIDGER,    N/A     22  20  96 SW20      29.90R WCI   6
EVANSTON, WY   CLOUDY    19  15  84 SW12      29.89R WCI   7
ROCK SPRINGS,  CLOUDY    19  15  84 W18       29.85R WCI   4

$$



USA.gov is the U.S. government's official web portal to all federal, state and local government web resources and services.